User: anonymous   Login
Location: Hamburg
(53.5500°N, 10.0000°E)
Time: 12:16:03
(UTC+01:00)
Language:

Iridium 10 - Orbit

View from above orbital plane
View from above orbital plane
View from above satellite
View from above satellite

Ground track
Ground track

The orbit data is extracted from the following two-line orbital elements,

1 24839U 97030D   14303.31064640  .00000154  00000-0  47965-4 0   637
2 24839 086.3998 031.7395 0002188 110.9366 307.9637 14.34215084909234
Epoch (UTC): 30 October 2014 07:27:19
Eccentricity: 0.0002188
inclination: 86.3998°
perigee height: 776 km
apogee height: 779 km
right ascension of ascending node: 31.7395°
argument of perigee: 110.9366°
revolutions per day: 14.34215084
mean anomaly at epoch: 307.9637°
orbit number at epoch: 90923

The dashed part of the orbit path shows where the satellite is in the earth's shadow,  

DLR